EDT,Max TemperatureF,Mean TemperatureF,Min TemperatureF,Max Dew PointF,MeanDew PointF,Min DewpointF,Max Humidity, Mean Humidity, Min Humidity, Max Sea Level PressureIn, Mean Sea Level PressureIn, Min Sea Level PressureIn, Max VisibilityMiles, Mean VisibilityMiles, Min VisibilityMiles, Max Wind SpeedMPH, Mean Wind SpeedMPH, Max Gust SpeedMPH,PrecipitationIn, CloudCover, Events, WindDirDegrees
2013-10-1,72,63,53,56,54,50,93,70,47,30.09,30.05,30.00,10,6,0,16,4,22,0.00,5,Fog,270
2013-10-2,74,61,47,60,55,46,93,75,57,30.12,30.06,30.01,10,8,3,21,6,28,0.00,4,,274
2013-10-3,73,57,40,63,50,38,96,78,59,30.16,30.12,30.06,10,5,0,12,3,15,0.00,3,Fog,188
2013-10-4,76,68,59,64,61,58,97,83,68,30.13,30.08,30.01,10,6,0,12,3,16,0.18,6,Fog-Rain-Thunderstorm,262
2013-10-5,77,66,55,63,60,53,100,80,60,30.14,30.09,30.02,10,4,0,14,3,18,0.03,6,Fog,202
2013-10-6,79,70,60,63,61,55,100,73,45,30.04,29.96,29.79,10,4,0,17,7,28,0.58,5,Fog-Rain,157
2013-10-7,69,58,46,58,47,37,89,72,54,30.10,29.83,29.67,10,8,2,23,9,33,0.39,7,Rain,248
2013-10-8,62,50,38,44,41,36,100,71,42,30.36,30.24,30.11,10,6,0,14,2,16,0.00,3,Fog,309
2013-10-9,64,48,32,40,34,29,92,59,26,30.41,30.35,30.31,10,8,0,13,2,17,0.00,0,Fog,130
2013-10-10,69,51,32,40,33,21,89,54,19,30.29,30.23,30.14,10,10,10,12,2,16,0.00,0,,71
2013-10-11,66,55,44,46,37,28,83,55,26,30.16,30.13,30.10,10,10,10,12,4,16,0.06,6,Rain,74
2013-10-12,73,57,41,51,40,34,82,56,30,30.22,30.17,30.13,10,10,10,14,4,17,0.00,0,,138
2013-10-13,59,54,48,55,51,38,93,74,54,30.32,30.29,30.21,10,6,2,10,5,15,0.19,7,Rain,151
2013-10-14,58,54,50,52,50,48,96,87,77,30.35,30.31,30.27,10,6,0,9,3,10,0.04,8,Fog-Rain,26
2013-10-15,63,58,52,53,51,46,93,80,67,30.28,30.17,30.02,10,8,4,13,5,19,0.00,6,,150
2013-10-16,60,56,51,56,52,45,93,78,62,30.00,29.92,29.85,10,6,1,17,8,23,0.88,7,Rain,189
2013-10-17,60,49,38,48,44,36,93,70,47,29.91,29.84,29.69,10,5,0,15,5,25,0.57,6,Fog-Rain,274
2013-10-18,56,49,42,42,39,34,89,66,43,29.97,29.89,29.80,10,10,9,18,7,25,T,6,Rain,256
2013-10-19,53,44,35,42,38,34,92,76,59,29.96,29.82,29.67,10,9,6,20,8,27,0.07,5,Rain,209
2013-10-20,52,45,37,36,33,32,85,67,48,30.03,29.93,29.82,10,10,9,17,8,28,0.00,6,Rain,247
2013-10-21,61,52,42,33,31,28,70,50,29,30.05,29.96,29.82,10,10,10,18,8,26,0.00,2,,197
2013-10-22,54,43,31,43,35,24,89,67,45,29.88,29.83,29.78,10,9,5,17,7,25,0.18,6,Rain,269
2013-10-23,40,34,28,33,30,25,92,81,70,29.86,29.77,29.69,10,8,2,20,4,23,0.04,8,Rain-Snow,285
2013-10-24,35,34,32,30,29,28,92,84,75,30.07,29.92,29.80,10,5,0,9,6,17,0.09,8,Fog-Snow,255
2013-10-25,42,38,33,33,30,26,89,71,53,30.24,30.17,30.08,10,6,1,17,7,23,0.06,8,Rain-Snow,261
2013-10-26,43,38,32,31,25,22,72,58,43,30.18,29.95,29.83,10,10,5,22,10,36,0.02,6,Rain-Snow,225
2013-10-27,40,34,27,33,31,26,92,78,64,30.11,29.98,29.86,10,9,4,17,6,23,0.07,7,Rain-Snow,266
2013-10-28,51,40,28,34,30,24,92,71,50,30.35,30.23,30.11,10,10,6,10,4,13,0.00,3,,317
2013-10-29,51,41,31,32,29,27,82,62,42,30.42,30.36,30.30,10,10,10,12,2,17,0.00,5,,318
2013-10-30,62,47,31,40,31,27,85,57,29,30.28,30.20,30.13,10,10,10,9,3,15,0.00,1,,213
2013-10-31,63,57,50,56,52,41,93,83,72,30.10,29.85,29.49,10,7,2,21,10,33,0.68,8,Rain,190